Tembak Ikan online
Agen sabung ayam online

Jackpot

Texas Poker Multi Jackpot System

Kini Telah hadir Jackpot SUPER ROYAL FLUSH

Kini Telah hadir Jackpot 2000 (khusus table VIP keatas).

Ikutilah global jackpot yang tersedia di system kami, dengan system jackpot terbaru dan pertama di indonesia, anda dapat membeli jackpot dengan harga 100 rupiah saja dan menangkan hadiahnya hingga puluhan juta rupiah.

Jackpot bukanlah suatu keharusan untuk dibeli, namun kami memberikan suatu fitur tambahan untuk member tercinta dari www.pokerqqstation.net.

Terdapat tiga pilihan harga jackpot yang bisa anda beli yaitu :100,500,1000 dan 2000(khusus table VIP Keatas) rupiah.

Hadiah dari Multi jackpot system www.pokerqqstation.net

  1. full house x 10 harga jackpot yang anda beli.
      (contoh:anda membeli 1000 maka:1000 X10 = 10.000)
  2. four of kind x 250 harga jackpot yang anda beli
      (contoh:anda membeli 1000 maka:1000 X250 = 250.000)
  3. Straight flush x 1200
      (contoh:anda membeli 1000 maka:1000 X1200 = 1.200.000)
  4. Royal flush x 10000 harga jackpot yang anda beli
      (contoh:anda membeli 1000 maka:1000 X10000 = 10.000.000)
  5. SUPER ROYAL FLUSH x 30000 harga jackpot yang anda beli
      (contoh:anda membeli 1000 maka:1000 X30000 = 30.000.000)

Kondisi kartu

  1. full house adalah kondisi kartu dimana kartu anda dan kartu tengah dengan total 7 kartu bisa mendapatkan nilai 5 kartu dengan kombinasi 1 tris(three of kind) dan 1 pair, contoh 3 kartu 10 dan 2 kartu 5
  2. Four of kind adalah kondisi kartu dimana kartu anda dan kartu tengah dengan total 7 kartu bisa mendapatkan nilai 5 kartu dengan kombinasi 4 kartu yang sama jumlah dan 1 kartu apapun juga contoh anda mendapatkan 4 buah kartu angka 3 dan 1 kartu apapun.
  3. Staright flush adalah kondisi kartu dimana kartu anda dan kartu tengah dengan total 7 kartu bisa mendapatkan nilai 5 kartu dengan kombinasi seri / staright dengan kembang yang sama contoh : urutan kartu dari angka 5, 6, 7, 8 , 9 10 dengan kembang yg sama misalnya as hati
  4. Royal flush adalah kondisi kartu dimana kartu anda dan kartu tengah dengan total 7 kartu bisa mendapatkan nilai 5 kartu dengan kombinasi seri / staright dengan kembang yang sama tetapi kartu tersebut haruslah dimulai dari 10. contoh 10, Queen, Jack, King dan aces dengan kembang yang sama
  5. Super Royal flush adalah kondisi kartu dimana Kedua kartu anda digabung dengan 3 kartu pertama meja haruslah royal flush. contoh kartu anda 10,Queen kembang sama dan 3 kartu pertama meja adalah Jack, King dan aces dengan kembang yang sama

Demikian adalah penjelasan dari Multi Jackpot www.pokerqqstation.net terima kasih dan selamat bermain salam hoki dari kami

Texas Poker Jackpot Winner

TOP SUPER ROYAL FLUSH
No.TanggalNamaPriceWin
111/12 08:57TUMBUNG09Super Royal flush6,000,000
211/12 04:12LUKY0299Super Royal flush6,000,000
311/12 02:26ACC0E299Super Royal flush1,500,000
411/12 00:40PETOT_28Super Royal flush3,000,000
510/12 23:48OZIE1111Super Royal flush6,000,000
TOP ROYAL FLUSH
No.TanggalNamaPriceWin
111/12 15:57RMISKINRoyal flush1,000,000
211/12 15:50TAGURAJAI1Royal flush20,000,000
311/12 15:40ZONAMURoyal flush20,000,000
411/12 15:06ANDIKA918Royal flush2,000,000
511/12 15:03DJ_LEONGRoyal flush2,000,000
TOP STRAIGHT FLUSH
No.TanggalNamaPriceWin
111/12 16:04SHHAUU66Straight Flush120,000
211/12 16:02BB24C87CStraight Flush240,000
311/12 16:02NTONG88Straight Flush120,000
411/12 16:02LAMBAN44Straight Flush600,000
511/12 16:02JACKPOT356Straight Flush2,400,000
LATEST JACKPOT
No.TanggalNamaPriceWin
111/12 16:08AJISSC06Full House10,000
211/12 16:08MELANIE03Full House5,000
311/12 16:08GHA_GOKILZFull House2,000
411/12 16:08TYIEZ9OJV7Full House1,000
511/12 16:08PEPES66Full House500
611/12 16:08M4A852X5UPFull House2,000
711/12 16:08RIKIAF09Full House2,000
811/12 16:08C18AY99Full House5,000
911/12 16:08GIPSY17Full House1,000
1011/12 16:08AADDAMBE81Four Of A Kind25,000
1111/12 16:08BULBASAUR8Full House10,000
1211/12 16:08FB852DD6Full House500
1311/12 16:08MOLJEFour Of A Kind125,000
1411/12 16:07EMON9999Full House20,000
1511/12 16:07D4NKSIRNYEFull House5,000
1611/12 16:07AADRBCBA55Full House5,000
1711/12 16:07C6E37B1EFull House5,000
1811/12 16:07NARAZA889Full House2,000
1911/12 16:07G4L188Four Of A Kind50,000
2011/12 16:07DEVI1117Full House10,000
2111/12 16:07AFWAN10Full House2,000
2211/12 16:07DI_TEMPAHFull House5,000
2311/12 16:07SUNOCEANFull House2,000
2411/12 16:07WINS19846Full House1,000
2511/12 16:07MOKIFull House2,000
2611/12 16:07OVJ5ULMZ1HFull House5,000
2711/12 16:07LQ3TZUZ3BGFull House5,000
2811/12 16:07HAR4KIRIFull House5,000
2911/12 16:07JAMBRUT80Full House5,000
3011/12 16:07ARBALSFull House5,000
3111/12 16:07SUCIYANTOFour Of A Kind50,000
3211/12 16:07RIZAL994Full House2,000
3311/12 16:07RAFA_1Full House5,000
3411/12 16:07T4DKUMIS88Full House2,000
3511/12 16:07KAMALUDINSFull House1,000
3611/12 16:07NURBUWONOFull House10,000
3711/12 16:07F43B1CDAFull House500
3811/12 16:07TONY19Full House10,000
3911/12 16:07JAYABE77Full House1,000
4011/12 16:07SURYATI23Full House1,000
4111/12 16:07ADIANTONIOFull House2,000
4211/12 16:07QQWARSI66Full House1,000
4311/12 16:07SUGES500Full House1,000
4411/12 16:07RINPETFull House5,000
4511/12 16:07ECHOBESETFull House5,000
4611/12 16:07INAN9KUFull House10,000
4711/12 16:07KUKUW88Full House5,000
4811/12 16:07SMRNN05Full House1,000
4911/12 16:07NTONG88Full House1,000
5011/12 16:07KATAMBA21Full House10,000

Domino Multi Jackpot System

Ikutilah global jackpot yang tersedia di system kami, dengan system jackpot terbaru dan pertama di indonesia, anda dapat membeli jackpot dengan harga 100 rupiah saja dan menangkan hadiahnya hingga puluhan juta rupiah.

Jackpot bukanlah suatu keharusan untuk dibeli, namun kami memberikan suatu fitur tambahan untuk member tercinta dari www.pokerqqstation.net.

Terdapat tiga pilihan harga jackpot yang bisa anda beli yaitu :100,500 dan 1000 rupiah.

Hadiah dari Multi jackpot system www.pokerqqstation.net

  1. Murni Kecil x 50 harga jackpot yang anda beli.
      (contoh:anda membeli 1000 maka:1000 X 50 = 50.000)
  2. Murni Besar x 50 harga jackpot yang anda beli
      (contoh:anda membeli 1000 maka:1000 X 50 = 50.000)
  3. BALAK x 100 harga jackpot yang anda beli
      (contoh:anda membeli 1000 maka:1000 X 100 = 100.000)
  4. ENAM DEWA x 6666 harga jackpot yang anda beli
      (contoh:anda membeli 1000 maka:1000 X 6666 = 6.666.000)

Demikian adalah penjelasan dari Multi Jackpot www.pokerqqstation.net terima kasih dan selamat bermain salam hoki dari kami

Domino Jackpot Winner

TOP ENAM DEWA
No.TanggalNamaPriceWin
111/12 14:48BRANGKALLmurni enam3,333,000
211/12 14:26MAYZADAmurni enam3,333,000
311/12 12:38ANDRE2543murni enam666,600
411/12 10:22GADUH_Pmurni enam666,600
511/12 09:24TAHOKGURENmurni enam3,333,000
TOP BALAK
No.TanggalNamaPriceWin
111/12 16:07IK4N79balak10,000
211/12 16:070R1balak50,000
311/12 16:07LINTAHHOKIbalak100,000
411/12 16:01MAMAX78balak50,000
511/12 15:55JIMMMbalak10,000
LATEST JACKPOT
No.TanggalNamaPriceWin
111/12 16:08L_I_N_T_Amurni besar50,000
211/12 16:07IK4N79balak10,000
311/12 16:07PUANGJIElucky992,500
411/12 16:070R1balak50,000
511/12 16:07OPBIJAL303murni kecil50,000
611/12 16:07LINTAHHOKIbalak100,000
711/12 16:06PRIAPKmurni kecil25,000
811/12 16:06GOE01murni kecil50,000
911/12 16:06BOVEN71murni besar50,000
1011/12 16:05DEDPROmurni besar5,000
1111/12 16:05IWFG82J1X2murni kecil5,000
1211/12 16:04CUT60murni besar25,000
1311/12 16:03PLKOJImurni besar5,000
1411/12 16:03BB63murni kecil5,000
1511/12 16:02SELUT12murni kecil50,000
1611/12 16:02TONDO87murni besar25,000
1711/12 16:02THIFAALmurni kecil5,000
1811/12 16:01BARUS678murni kecil25,000
1911/12 16:01L_I_N_T_Alucky9950,000
2011/12 16:01MAMAX78balak50,000
2111/12 16:00MULTI88802murni kecil50,000
2211/12 15:59QNET987murni besar50,000
2311/12 15:59LOOP4Gmurni kecil5,000
2411/12 15:59BEBENWARLKmurni kecil5,000
2511/12 15:58ANNANOYAmurni besar50,000
2611/12 15:58LAYALAYmurni besar25,000
2711/12 15:58DEDPROmurni kecil5,000
2811/12 15:56MICAN15murni besar25,000
2911/12 15:56ANG_UNG999lucky9950,000
3011/12 15:55HAKA29lucky9910,000
3111/12 15:55JIMMMbalak10,000
3211/12 15:53RHENALFbalak10,000
3311/12 15:53SELUT12lucky9910,000
3411/12 15:53D300746Emurni kecil25,000
3511/12 15:53LINTAHHOKImurni kecil50,000
3611/12 15:51B4S3N966murni kecil5,000
3711/12 15:51EFFImurni kecil5,000
3811/12 15:50UCUK426murni kecil5,000
3911/12 15:50OPBIJAL303murni kecil50,000
4011/12 15:50CILAKAYAlucky9925,000
4111/12 15:50RBT55murni kecil50,000
4211/12 15:49JLO201balak50,000
4311/12 15:49GJFDHJYbalak10,000
4411/12 15:49JNCK19murni besar5,000
4511/12 15:49AMIENSAmurni besar25,000
4611/12 15:49NOVRI8murni kecil5,000
4711/12 15:48PROJOK878murni kecil25,000
4811/12 15:48DC429D2Amurni kecil50,000
4911/12 15:48ANNANOYAmurni kecil50,000
5011/12 15:47DENADA303murni besar5,000

Ceme Multi Jackpot System

Jackpot dilihat dari gabungan kartu pemain dengan kartu bandar. Bandar harus membeli jackpot sebanyak jumlah player yang sedang duduk. Sebagai contoh bila terdapat 3 pemain duduk bermain, dan bandar memutuskan untuk membeli jackpot Rp 1.000, maka pada periode tersebut bandar akan membeli jackpot sebanyak 3xRp1.000 = Rp3.000.

Jackpot bukanlah suatu keharusan untuk dibeli, namun kami memberikan suatu fitur tambahan untuk member tercinta dari www.pokerqqstation.net.

Terdapat tiga pilihan harga jackpot yang bisa anda beli yaitu :100,500 dan 1000 rupiah.

Hadiah dari Multi jackpot system www.pokerqqstation.net

  1. Murni Kecil x 50 harga jackpot yang anda beli.
      (contoh:anda membeli 1000 maka:1000 X 50 = 50.000)
  2. Murni Besar x 50 harga jackpot yang anda beli
      (contoh:anda membeli 1000 maka:1000 X 50 = 50.000)
  3. BALAK x 200 harga jackpot yang anda beli
      (contoh:anda membeli 1000 maka:1000 X 200 = 200.000)
  4. ENAM DEWA x 6666 harga jackpot yang anda beli
      (contoh:anda membeli 1000 maka:1000 X 6666 = 6.666.000)

Demikian adalah penjelasan dari Multi Jackpot www.pokerqqstation.net terima kasih dan selamat bermain salam hoki dari kami

Ceme Jackpot Winner

TOP ENAM DEWA
No.TanggalNamaPriceWin
111/12 15:52PLGFANSYAH888murni enam3,333,000
211/12 15:50KULOBUTAmurni enam6,666,000
311/12 15:47RASASOTO12murni enam3,333,000
411/12 14:45BENTO2018murni enam6,666,000
511/12 14:11DINANAGARmurni enam6,666,000
TOP BALAK
No.TanggalNamaPriceWin
111/12 16:07CAHCIL4balak200,000
211/12 16:07AADDAI1243balak100,000
311/12 16:07RISKAARD94balak200,000
411/12 16:07BANCUHWAbalak100,000
511/12 16:06BO8BY387Mbalak200,000
LATEST JACKPOT
No.TanggalNamaPriceWin
111/12 16:08NERAKA1murni besar25,000
211/12 16:08WAHYUQIU99murni besar50,000
311/12 16:08MUCHERQQmurni kecil50,000
411/12 16:07CAHCIL4balak200,000
511/12 16:07KOLEPmurni besar50,000
611/12 16:07GELOXSmurni kecil50,000
711/12 16:07AADDAI1243balak100,000
811/12 16:07RISKAARD94balak200,000
911/12 16:07BANCUHWAbalak100,000
1011/12 16:07CUCOL29murni kecil25,000
1111/12 16:07CH3NUNmurni kecil25,000
1211/12 16:06AOPP2YE744murni kecil50,000
1311/12 16:06CIKJUNAI88murni kecil25,000
1411/12 16:06HERO5758murni kecil50,000
1511/12 16:06BO8BY387Mbalak200,000
1611/12 16:06REZEKIKU99balak200,000
1711/12 16:06JP_BOSS11murni kecil5,000
1811/12 16:06RAVATAR007murni kecil25,000
1911/12 16:06TUKINEM9murni kecil50,000
2011/12 16:06TITO6997murni kecil50,000
2111/12 16:06KDFZ7XPBS5murni kecil25,000
2211/12 16:06RIAMAWDIEmurni besar50,000
2311/12 16:06ABEE481murni besar25,000
2411/12 16:06KIRA099murni besar25,000
2511/12 16:06HANCURXbalak100,000
2611/12 16:06FAIRUZ4545balak20,000
2711/12 16:06WALLUH10murni kecil50,000
2811/12 16:06FE7F1310murni kecil50,000
2911/12 16:06GOJEK78balak200,000
3011/12 16:06AGAMHKNbalak100,000
3111/12 16:05ARTHUR57balak200,000
3211/12 16:05UKA12345balak20,000
3311/12 16:05LIE66murni kecil50,000
3411/12 16:05BUN999balak20,000
3511/12 16:05BONKQ05balak20,000
3611/12 16:05DSNSVS9TXAbalak200,000
3711/12 16:05HERI360murni besar5,000
3811/12 16:05WAHYUQIU99murni kecil50,000
3911/12 16:05HRU21murni kecil50,000
4011/12 16:05JUDIH123murni kecil50,000
4111/12 16:05DOMINO1234murni kecil25,000
4211/12 16:04TI4R4123balak100,000
4311/12 16:04SYIKE2murni kecil5,000
4411/12 16:04DEVA421balak200,000
4511/12 16:04AKBARMOMOTmurni besar50,000
4611/12 16:04TUKINEM9murni besar50,000
4711/12 16:04BEN102murni besar50,000
4811/12 16:04IPHONEX9balak200,000
4911/12 16:04JAZZKU96murni kecil50,000
5011/12 16:04HOK1T0NGmurni besar50,000